Date,TemperatureHighF,TemperatureAvgF,TemperatureLowF,DewpointHighF,DewpointAvgF,DewpointLowF,HumidityHigh,HumidityAvg,HumidityLow,PressureMaxIn,PressureMinIn,WindSpeedMaxMPH,WindSpeedAvgMPH,GustSpeedMaxMPH,PrecipitationSumIn
2012-1-1,50.9,36.9,25.9,18.4,14.6,10.8,62,41,24,30.61,30.34,7,0,11,0.00
2012-1-2,51.0,36.0,24.9,21.5,16.4,12.8,70,46,26,30.72,30.54,5,0,9,0.00
2012-1-3,53.2,37.8,25.3,24.3,18.9,13.5,80,48,29,30.54,30.34,5,0,9,0.00
2012-1-4,54.6,40.3,27.2,22.8,20.3,15.3,77,46,28,30.58,30.38,7,0,11,0.00
2012-1-5,43.8,32.2,25.8,23.6,18.8,16.0,72,58,39,30.43,30.38,5,0,12,0.00
2012-1-6,55.3,47.3,37.7,24.4,20.7,19.1,50,35,26,30.13,30.04,12,1,15,0.00
2012-1-7,55.5,49.1,37.7,24.9,23.6,22.0,54,37,29,30.02,29.88,14,2,17,0.00
2012-1-8,41.7,37.0,31.7,30.5,25.8,23.3,76,64,53,30.26,30.02,9,1,14,0.00
2012-1-9,44.7,34.7,25.4,26.6,22.2,15.7,85,62,37,30.37,30.25,7,1,12,0.00
2012-1-10,49.6,37.5,25.6,23.6,19.8,16.0,76,50,35,30.29,30.04,11,1,12,0.00
2012-1-11,46.9,36.8,28.6,23.5,16.6,8.5,76,46,26,30.16,29.96,22,3,33,0.00
2012-1-12,39.9,30.7,22.9,11.7,6.5,2.7,58,37,22,30.29,30.16,4,0,10,0.00
2012-1-13,46.2,31.7,20.4,10.8,5.6,1.8,56,34,17,30.45,30.26,12,1,15,0.00
2012-1-14,50.9,35.2,23.5,13.1,8.0,3.3,54,33,21,30.50,30.30,9,0,11,0.00
2012-1-15,50.6,38.5,25.6,30.8,16.4,8.9,60,41,26,30.30,30.05,10,0,11,0.00
2012-1-16,50.9,43.7,37.0,38.3,30.5,23.9,86,61,40,30.04,29.78,23,4,35,0.05
2012-1-17,47.1,38.7,30.7,26.7,22.3,18.1,70,53,34,30.26,30.02,14,2,16,0.00
2012-1-18,53.2,39.5,25.6,25.0,20.3,18.2,77,49,28,30.30,30.11,6,0,10,0.00
2012-1-19,62.0,47.9,33.5,28.5,23.2,18.5,56,38,28,30.13,29.83,4,0,10,0.00
2012-1-20,56.3,46.7,37.3,25.4,20.2,17.1,49,36,22,30.01,29.80,12,1,20,0.00
2012-1-21,57.7,45.0,29.0,33.2,22.8,17.0,65,43,27,30.02,29.60,25,3,30,0.00
2012-1-22,47.2,38.1,31.7,28.3,18.2,10.2,76,45,25,30.13,29.60,18,5,30,0.00
2012-1-23,51.1,38.4,22.9,19.8,15.8,12.2,68,42,24,30.18,29.89,6,0,9,0.00
2012-1-24,40.6,37.7,33.3,30.5,24.6,18.6,84,60,42,30.17,29.83,14,1,15,0.25
2012-1-25,35.9,34.6,34.2,28.2,26.9,26.4,76,73,71,30.22,30.16,10,3,14,0.00
2012-1-26,53.8,46.0,37.6,26.4,24.4,22.4,54,43,34,30.28,29.97,10,1,12,0.00
2012-1-27,50.6,42.3,33.7,29.5,20.4,10.6,63,43,20,30.26,29.92,17,3,26,0.00
2012-1-28,49.1,36.1,26.1,23.8,14.9,5.7,77,46,19,30.46,30.26,10,1,14,0.00
2012-1-29,52.4,37.6,26.0,14.7,10.7,7.8,60,34,19,30.48,30.25,9,1,12,0.00
2012-1-30,56.4,41.6,28.1,21.7,15.8,12.3,67,37,21,30.25,29.96,7,0,13,0.00
2012-1-31,54.4,44.8,33.9,22.3,17.5,14.0,47,34,23,30.12,29.99,9,1,13,0.00
2012-2-1,54.8,42.9,28.0,23.9,19.8,13.0,73,43,24,30.25,30.02,6,0,11,0.00
2012-2-2,50.0,42.2,35.1,28.1,20.0,13.6,74,43,27,30.02,29.74,19,2,23,0.00
2012-2-3,45.7,36.6,30.6,31.2,26.7,22.5,91,70,44,30.22,29.87,7,0,10,0.02
2012-2-4,46.7,34.6,25.7,24.0,19.7,16.0,82,58,32,30.36,30.21,18,4,27,0.00
2012-2-5,45.0,35.9,26.6,22.8,19.4,17.4,72,52,38,30.38,30.21,20,2,21,0.00
2012-2-6,49.9,37.3,26.3,29.3,22.1,17.3,83,55,36,30.22,30.01,11,1,16,0.00
2012-2-7,47.6,34.9,24.6,29.1,20.5,14.0,83,58,33,30.36,30.13,14,1,16,0.00
2012-2-8,53.0,37.8,23.9,26.4,21.1,15.9,81,53,32,30.39,30.21,4,0,10,0.00
2012-2-9,51.7,43.5,35.2,34.9,26.0,19.6,88,53,31,30.22,30.00,21,3,24,0.09
2012-2-10,52.9,40.4,28.9,28.2,24.3,21.1,81,55,32,30.27,30.12,11,1,14,0.00
2012-2-11,55.4,39.0,26.4,26.8,23.3,18.1,77,55,31,30.22,29.98,8,0,12,0.00
2012-2-12,41.3,30.7,22.4,32.2,23.7,16.7,88,76,53,30.14,29.92,10,0,10,0.03
2012-2-13,46.9,40.1,34.4,32.3,27.7,23.3,88,63,41,29.97,29.83,13,1,17,0.01
2012-2-14,51.2,40.0,31.2,30.9,26.9,24.0,88,61,39,29.84,29.64,13,1,19,0.03
2012-2-15,43.4,34.5,25.9,28.2,24.0,19.0,91,68,40,30.13,29.82,7,0,13,0.31
2012-2-16,49.8,37.8,27.5,26.8,23.1,20.2,78,57,38,30.21,30.07,6,0,7,0.00
2012-2-17,53.9,39.6,27.1,30.8,25.0,20.8,83,59,29,30.09,29.90,12,1,16,0.00
2012-2-18,52.3,39.4,28.7,27.8,18.4,14.5,79,46,23,30.11,29.98,13,1,14,0.00
2012-2-19,52.2,40.6,33.7,30.1,23.8,19.1,63,52,31,30.01,29.65,14,2,38,0.02
2012-2-20,41.3,34.5,26.0,26.6,9.7,1.5,69,38,19,30.21,29.82,20,5,25,0.00
2012-2-21,55.0,39.1,25.2,16.5,12.4,6.3,58,35,19,30.29,30.10,14,2,20,0.00
2012-2-22,60.4,47.0,36.2,27.8,21.9,14.8,49,37,27,30.14,29.76,18,3,20,0.00
2012-2-23,62.4,47.1,36.4,26.7,20.6,3.6,58,36,24,30.00,29.57,25,4,29,0.00
2012-2-24,55.4,38.2,22.5,14.9,8.9,4.0,64,32,16,30.27,30.00,10,1,15,0.00
2012-2-25,62.4,46.5,29.0,22.4,15.0,5.6,39,28,20,30.26,29.82,15,2,20,0.00
2012-2-26,58.7,47.6,34.4,21.4,15.6,10.0,52,29,16,29.97,29.81,10,2,18,0.00
2012-2-27,56.9,44.7,34.4,23.9,15.7,9.4,38,31,26,30.09,29.81,17,2,28,0.00
2012-2-28,45.7,41.2,32.9,25.4,15.9,7.5,50,36,25,30.09,29.75,27,7,34,0.00
2012-2-29,55.4,40.6,27.2,18.8,15.7,11.5,63,39,21,30.23,29.98,7,1,13,0.00
2012-3-1,57.9,45.1,35.4,26.2,12.9,6.2,67,29,14,29.98,29.61,28,6,38,0.00
2012-3-2,38.6,33.1,27.7,20.0,12.6,-1.0,66,44,21,30.24,29.72,25,5,31,0.00
2012-3-3,45.5,32.9,18.5,12.9,8.7,4.9,58,37,24,30.43,30.24,19,4,23,0.00
2012-3-4,59.0,44.1,32.0,22.8,18.0,12.7,47,36,24,30.42,30.17,13,2,18,0.00
2012-3-5,41.9,34.3,30.6,21.5,17.7,15.4,64,51,40,30.23,30.19,2,0,5,0.00
2012-3-7,40.3,39.2,38.5,25.6,24.9,24.0,59,56,52,29.82,29.80,9,2,13,0.00
2012-3-8,43.7,38.7,33.1,28.2,21.1,13.7,76,50,36,30.50,29.80,26,6,38,0.00
2012-3-9,42.9,35.8,30.0,23.9,19.8,13.9,61,52,39,30.54,30.27,16,2,19,0.00
2012-3-10,40.1,36.4,33.3,29.9,24.7,20.2,85,63,55,30.27,30.01,10,1,17,0.00
2012-3-11,61.1,45.0,32.0,32.7,25.8,15.8,95,54,18,30.02,29.88,15,2,21,0.17
2012-3-12,67.2,50.4,34.7,25.7,18.5,15.2,60,31,15,30.08,29.94,6,0,11,0.00
2012-3-13,70.4,54.7,35.6,21.5,15.3,11.1,43,23,12,30.03,29.85,10,1,15,0.00
2012-3-14,71.3,55.5,39.6,17.7,12.9,8.7,32,19,11,30.00,29.86,9,0,13,0.00
2012-3-15,72.9,55.0,37.8,18.2,13.6,8.0,37,21,9,30.08,29.90,6,0,10,0.00
2012-3-16,74.9,58.7,43.1,17.4,12.3,7.1,26,16,10,29.93,29.68,15,1,16,0.00
2012-3-17,71.7,58.1,39.8,18.5,14.2,9.5,33,18,12,29.76,29.54,17,2,27,0.00
2012-3-18,62.0,51.7,38.2,32.0,25.4,17.1,78,39,21,29.59,29.30,35,6,58,0.01
2012-3-19,41.2,35.1,30.1,23.9,15.9,6.2,62,46,23,29.82,29.59,21,2,21,0.00
2012-3-20,47.7,35.8,29.0,19.0,15.1,6.1,64,46,21,30.02,29.81,16,2,22,0.00
2012-3-21,61.9,50.5,31.2,23.5,17.8,10.8,43,28,20,30.06,29.82,18,3,22,0.00
2012-3-22,71.5,54.2,39.9,27.3,22.4,17.7,47,31,15,29.91,29.73,8,1,14,0.00
2012-3-23,75.7,57.7,38.3,24.6,20.2,16.4,43,25,14,30.00,29.82,8,0,12,0.00
2012-3-24,77.8,61.6,46.6,26.8,22.7,16.7,39,23,14,29.94,29.79,8,1,12,0.00
2012-3-25,82.9,65.2,45.6,27.3,23.2,17.7,37,21,13,29.86,29.64,22,2,33,0.00
2012-3-26,78.1,66.2,54.1,24.0,19.5,12.5,24,17,9,29.72,29.55,15,3,23,0.00
2012-3-27,75.6,58.3,42.5,23.8,18.8,14.0,42,23,11,29.91,29.73,9,1,13,0.00
2012-3-28,77.5,59.7,42.6,21.3,17.0,13.0,38,20,11,29.94,29.70,8,1,16,0.00
2012-3-29,73.3,59.5,43.4,22.5,17.4,10.7,32,20,14,29.85,29.69,13,1,20,0.00
2012-3-30,77.9,60.6,43.0,27.6,22.2,17.0,40,24,15,29.87,29.70,12,1,16,0.00
2012-3-31,80.9,64.5,46.6,30.3,24.8,18.9,39,23,15,29.83,29.60,11,1,17,0.00
2012-4-1,79.6,63.8,47.5,26.0,21.4,12.7,36,21,9,29.64,29.29,22,4,29,0.00
2012-4-2,53.9,46.2,34.4,31.7,19.0,14.8,90,34,26,29.76,29.37,15,2,19,0.25
2012-4-3,47.3,37.6,32.3,36.9,33.1,29.9,92,85,61,30.10,29.76,7,0,12,0.56
2012-4-4,67.6,49.9,34.2,37.5,35.0,30.6,92,61,31,30.08,29.81,9,0,13,0.00
2012-4-5,72.4,59.3,42.0,34.9,29.4,22.1,60,35,19,29.84,29.65,11,1,15,0.00
2012-4-6,65.7,55.5,46.4,27.0,23.7,21.4,40,30,19,29.80,29.70,12,1,16,0.00
2012-4-8,76.1,69.6,61.2,33.5,30.9,25.0,35,24,17,30.16,29.95,13,2,18,0.00
2012-4-9,68.0,60.6,52.3,38.1,34.7,32.0,51,38,30,29.97,29.82,5,0,14,0.00
2012-4-10,81.0,61.8,45.8,41.2,36.3,32.1,68,41,18,29.93,29.77,13,1,23,0.00
2012-4-11,78.9,65.9,51.7,43.3,35.4,22.1,62,36,16,29.81,29.53,25,3,35,0.00
2012-4-12,65.1,56.5,46.3,31.3,24.0,13.3,50,30,17,29.77,29.62,19,3,25,0.00
2012-4-13,70.0,57.0,42.2,22.7,15.6,8.1,36,21,10,29.84,29.50,17,2,27,0.00
2012-4-14,59.8,49.9,37.1,26.1,17.9,11.9,43,29,18,29.69,29.36,26,4,41,0.00
2012-4-15,56.9,42.0,32.9,26.1,20.5,15.6,57,43,27,30.04,29.70,19,3,26,0.00
2012-4-16,62.7,49.8,35.3,26.9,22.6,17.9,65,37,19,30.16,30.02,13,2,21,0.00
2012-4-17,47.4,40.9,36.8,23.5,20.9,19.2,55,45,33,30.16,30.11,0,0,3,0.00
2012-4-18,79.6,71.0,60.9,27.4,23.6,18.4,25,17,12,29.93,29.66,10,2,16,0.00
2012-4-19,72.0,62.4,53.5,37.7,27.9,21.6,36,27,20,29.77,29.62,18,2,30,0.00
2012-4-20,76.3,61.3,44.7,32.5,29.6,25.9,57,33,17,29.98,29.76,11,1,15,0.00
2012-4-21,83.0,66.3,50.3,34.0,26.4,19.7,42,25,10,29.95,29.79,7,1,12,0.00
2012-4-22,86.3,68.8,48.2,38.2,29.5,21.7,44,25,13,29.92,29.77,12,1,21,0.00
2012-4-23,87.3,70.4,54.2,41.2,36.4,30.4,55,31,15,29.91,29.70,10,0,15,0.00
2012-4-24,86.8,72.1,52.3,37.9,33.3,29.7,50,26,15,29.82,29.58,13,1,20,0.00
2012-4-25,84.1,67.6,54.7,31.9,26.8,20.9,33,23,14,29.76,29.66,14,1,24,0.00
2012-4-30,81.4,72.5,59.0,29.1,25.5,19.2,25,18,13,29.82,29.60,7,1,18,0.00
2012-5-1,81.6,68.1,51.4,34.8,27.5,19.7,36,23,14,29.70,29.48,16,2,26,0.00
2012-5-2,82.1,68.6,51.1,31.6,25.8,18.1,37,21,13,29.69,29.53,9,2,15,0.00
2012-5-3,81.8,68.4,51.9,31.7,27.1,19.5,43,22,13,29.78,29.62,11,2,17,0.00
2012-5-4,86.9,82.5,72.9,31.6,27.8,25.3,18,14,11,29.71,29.61,14,2,17,0.00
2012-5-5,82.3,74.5,64.2,25.6,23.6,21.8,21,15,11,29.64,29.56,12,1,18,0.00
2012-5-6,81.6,68.4,53.3,38.7,24.6,20.2,36,20,12,29.76,29.60,15,2,21,0.00
2012-5-7,68.3,61.2,51.5,43.4,38.4,31.0,59,44,30,29.84,29.61,24,6,31,0.00
2012-5-8,69.0,56.8,48.5,40.5,37.3,33.1,60,49,33,29.99,29.84,11,1,20,0.00
2012-5-9,57.8,50.6,46.7,40.8,38.9,38.0,73,65,51,30.02,29.94,6,0,12,0.00
2012-5-12,74.8,65.4,56.8,47.4,41.3,33.7,68,43,25,30.04,29.92,26,2,26,0.05
2012-5-13,69.3,58.0,50.1,46.0,41.4,34.8,76,55,36,30.05,29.91,18,1,28,0.00
2012-5-14,72.7,58.2,43.7,42.2,38.8,36.0,82,52,29,30.09,29.97,10,1,16,0.00
2012-5-15,81.2,64.9,47.1,41.8,35.5,23.5,70,39,16,30.07,29.88,11,1,16,0.00
2012-5-16,81.0,68.9,51.5,41.6,31.6,24.8,44,26,14,29.95,29.70,14,2,20,0.00
2012-5-17,86.9,74.3,60.3,36.2,28.0,21.2,31,19,11,29.76,29.46,13,2,20,0.00
2012-5-18,83.6,69.8,56.8,33.7,25.1,18.6,29,19,13,29.56,29.33,17,2,31,0.00
2012-5-19,82.1,68.1,50.7,31.1,25.0,18.0,33,20,13,29.75,29.54,14,1,16,0.00
2012-5-20,84.1,68.8,51.6,44.7,35.9,24.6,51,31,17,29.93,29.75,16,1,19,0.00
2012-5-21,90.2,74.4,56.1,50.3,43.2,35.9,67,37,16,29.92,29.67,16,1,21,0.00
2012-5-22,91.0,78.1,62.9,48.7,35.2,21.1,54,25,9,29.72,29.41,12,2,19,0.00
2012-5-23,91.1,76.4,61.3,28.1,23.1,18.7,23,15,9,29.46,29.19,23,5,30,0.00
2012-5-24,71.5,71.4,71.1,34.4,34.0,33.8,26,25,25,29.37,29.37,13,8,19,0.00
2012-5-27,60.6,60.6,60.6,11.1,11.1,11.1,14,14,14,29.76,29.76,0,0,36,0.00
2012-5-28,82.2,72.4,56.4,23.3,20.1,16.3,23,14,10,29.90,29.73,10,1,16,0.00
2012-5-29,89.1,71.2,48.2,29.0,21.5,15.0,34,17,9,29.86,29.63,10,1,16,0.00
2012-5-30,86.7,73.6,55.5,26.8,18.9,13.8,27,13,8,29.72,29.55,16,2,21,0.00
2012-5-31,81.0,68.5,59.0,43.5,28.5,16.9,30,23,13,29.72,29.61,13,1,16,0.00
2012-6-1,94.9,87.4,78.4,47.2,39.8,33.2,29,20,13,29.64,29.45,14,2,20,0.00
2012-6-2,94.0,79.5,65.0,44.5,35.0,22.8,42,23,10,29.59,29.39,16,2,21,0.00
2012-6-3,93.9,78.0,58.1,35.4,28.0,20.1,34,17,10,29.65,29.52,10,1,12,0.00
2012-6-4,91.9,74.7,66.4,55.6,40.7,32.9,56,31,18,29.64,29.53,20,2,28,0.05
2012-6-5,89.4,77.2,59.6,46.3,42.4,36.7,59,32,16,29.73,29.49,15,1,16,0.00
2012-6-6,92.8,77.0,60.1,48.0,35.7,24.6,54,26,10,29.62,29.43,7,1,15,0.00
2012-6-7,92.5,77.7,56.7,42.9,30.1,23.2,42,19,10,29.66,29.49,13,1,19,0.00
2012-6-8,94.1,77.8,58.0,47.8,32.5,23.9,48,22,9,29.68,29.44,11,1,14,0.00
2012-6-9,93.8,91.0,86.9,26.3,24.1,20.9,10,9,8,29.44,29.32,21,8,25,0.00
2012-6-10,90.0,81.1,64.3,36.5,31.0,25.6,25,16,11,29.61,29.47,13,3,21,0.00
2012-6-11,91.3,75.4,56.7,39.7,29.7,26.0,35,20,11,29.78,29.61,13,1,21,0.00
2012-6-12,91.5,80.3,66.7,48.7,41.9,35.3,45,27,14,29.77,29.54,18,2,30,0.00
2012-6-13,93.0,75.1,61.9,51.7,41.2,29.7,59,33,11,29.63,29.50,9,0,17,0.00
2012-6-14,77.3,75.0,73.2,29.9,28.5,27.1,19,18,17,29.48,29.47,0,0,19,0.00
2012-6-15,93.0,79.0,61.8,34.0,28.4,21.6,28,16,10,29.62,29.47,10,1,17,0.00
2012-6-16,92.0,77.4,68.5,46.5,41.3,30.1,41,29,12,29.76,29.56,13,2,19,0.00
2012-6-17,94.6,78.3,60.0,48.4,40.0,27.8,56,30,10,29.80,29.49,14,2,24,0.00
2012-6-18,95.9,80.9,64.6,35.0,27.9,22.7,28,16,8,29.59,29.36,16,3,38,0.00
2012-6-19,95.5,82.4,65.6,34.3,28.7,22.3,25,15,9,29.48,29.30,14,2,17,0.00
2012-6-20,98.4,82.1,64.2,35.4,26.0,18.6,27,14,8,29.58,29.38,18,2,22,0.00
2012-6-21,91.4,80.5,69.8,54.9,51.4,32.0,56,38,19,29.68,29.56,19,4,30,0.00
2012-6-22,97.4,81.4,66.3,53.3,46.5,39.3,48,31,14,29.70,29.48,14,2,21,0.00
2012-6-23,97.8,84.6,73.1,51.4,45.8,42.1,38,27,16,29.58,29.44,13,2,18,0.00
2012-6-24,98.9,85.6,70.3,46.9,40.8,30.2,37,22,11,29.68,29.53,15,2,24,0.00
2012-6-25,97.8,84.8,67.0,46.3,39.0,33.5,41,21,12,29.71,29.53,14,2,19,0.00
2012-6-26,97.4,85.2,71.6,44.7,37.6,32.3,27,19,12,29.65,29.44,12,2,20,0.00
2012-6-27,99.5,83.5,67.7,49.0,42.2,32.8,44,25,10,29.66,29.54,12,2,19,0.00
2012-6-28,101.6,83.6,65.6,48.4,43.6,38.0,47,27,12,29.76,29.60,12,1,19,0.00
2012-6-29,98.9,85.7,72.1,49.7,43.7,39.9,40,24,14,29.71,29.49,16,2,21,0.00
2012-6-30,102.2,86.3,68.8,46.4,41.9,37.1,42,23,12,29.59,29.40,11,2,19,0.00
2012-7-1,98.1,83.7,68.5,50.2,46.3,41.0,44,28,17,29.58,29.44,16,2,24,0.00
2012-7-2,99.1,82.9,68.5,60.8,50.2,46.7,74,35,18,29.64,29.42,15,1,17,0.10
2012-7-3,92.7,78.0,64.7,65.2,53.7,44.6,75,46,23,29.64,29.46,14,1,28,0.20
2012-7-4,92.0,77.6,69.0,57.6,53.2,49.7,58,44,26,29.65,29.47,16,2,25,0.00
2012-7-6,82.3,77.0,69.9,57.5,55.0,53.4,65,47,39,29.85,29.75,10,1,16,0.00
2012-7-10,85.9,78.3,69.2,57.3,54.4,50.7,64,44,34,29.90,29.77,10,1,20,0.06
2012-7-11,89.7,75.0,64.6,56.8,54.8,52.0,72,52,30,29.90,29.69,13,1,16,0.00
2012-7-12,91.5,75.7,62.5,60.4,54.6,50.9,73,51,27,29.84,29.64,10,1,17,0.03
2012-7-13,92.4,81.3,69.6,55.4,51.0,46.5,56,36,24,29.80,29.63,12,1,16,0.00
2012-7-19,89.5,89.5,89.5,51.0,51.0,51.0,27,27,27,29.81,29.81,1,1,33,0.00
2012-7-20,89.3,83.7,79.1,51.4,49.6,47.4,38,31,24,29.80,29.70,7,1,14,0.00
2012-7-21,92.4,81.8,71.2,55.5,51.5,45.9,53,36,24,29.83,29.64,11,1,19,0.00
2012-7-22,91.1,78.6,67.3,54.1,50.7,47.6,57,39,25,29.81,29.70,12,1,19,0.00
2012-7-23,95.3,76.2,65.0,59.7,51.1,47.5,67,43,21,29.81,29.68,14,0,18,0.03
2012-7-24,88.9,73.2,62.5,59.5,52.6,49.1,72,51,28,29.79,29.63,14,1,29,0.65
2012-7-25,91.4,76.1,61.5,57.2,53.2,46.5,77,49,23,29.76,29.58,16,1,20,0.00
2012-7-26,92.3,77.3,67.6,56.6,52.4,48.1,57,43,25,29.74,29.62,7,1,16,0.00
2012-7-27,92.1,79.6,66.8,57.1,51.4,43.2,61,40,19,29.80,29.68,14,2,18,0.00
2012-7-28,93.0,78.9,66.3,57.5,54.1,50.9,66,44,27,29.84,29.67,10,1,14,0.00
2012-7-29,92.1,80.6,69.1,56.7,52.6,45.3,62,40,21,29.86,29.66,13,1,17,0.00
2012-7-30,96.2,82.8,68.7,53.5,49.2,44.9,50,32,22,29.79,29.59,10,1,14,0.00
2012-8-1,79.3,77.4,75.9,47.6,46.9,46.3,36,34,32,29.71,29.70,3,0,7,0.00
2012-8-2,96.4,79.8,65.4,58.7,50.3,46.6,63,38,20,29.75,29.53,26,2,30,0.01
2012-8-3,92.5,74.9,63.6,55.5,51.9,47.8,71,47,22,29.71,29.59,17,1,31,0.00
2012-8-4,80.9,68.9,63.4,52.4,50.2,48.1,63,52,34,29.77,29.68,4,0,9,0.00
2012-8-5,87.8,83.5,79.1,56.0,53.1,51.4,40,35,32,29.91,29.81,14,2,20,0.03
2012-8-6,91.9,77.8,62.9,61.1,55.2,49.1,85,50,25,29.95,29.75,9,1,19,0.24
2012-8-7,97.3,79.4,67.0,54.0,52.0,50.0,61,41,21,29.82,29.65,10,1,11,0.00
2012-8-11,97.9,90.8,79.3,48.9,45.4,42.5,31,21,17,29.70,29.55,12,2,16,0.00
2012-8-12,98.1,79.7,65.4,56.7,47.7,41.9,73,35,17,29.84,29.59,17,2,24,0.19
2012-8-13,92.5,75.3,63.3,56.7,51.9,46.5,72,47,23,29.87,29.68,20,1,28,0.00
2012-8-14,92.0,76.9,67.5,52.8,49.6,47.4,50,39,24,29.77,29.59,7,0,14,0.05
2012-8-15,94.9,78.8,62.6,52.6,49.5,46.0,63,39,20,29.67,29.50,10,0,15,0.00
2012-8-16,91.3,77.9,67.4,57.0,50.9,45.2,63,40,26,29.81,29.59,21,2,27,0.00
2012-8-17,89.9,75.1,64.4,56.5,53.1,48.0,70,49,27,29.84,29.64,9,0,20,0.01
2012-8-18,93.9,73.0,59.0,54.4,51.8,47.1,78,51,22,29.76,29.58,11,1,19,0.01
2012-8-19,90.6,78.2,66.5,57.5,52.7,47.5,61,43,25,29.77,29.59,16,1,17,0.00
2012-8-20,78.7,71.7,68.0,58.0,53.4,49.1,64,53,44,29.77,29.66,12,1,23,0.01
2012-8-21,90.8,74.4,60.5,57.0,53.1,43.6,78,52,20,29.82,29.68,13,0,21,0.00
2012-8-22,81.8,72.5,65.9,58.1,54.6,50.9,70,54,41,29.77,29.68,11,1,18,0.00
2012-8-23,82.8,70.8,60.5,61.2,54.2,50.7,80,57,39,29.77,29.65,12,2,25,0.10
2012-8-24,80.2,70.3,63.1,58.6,53.1,49.2,70,56,34,29.73,29.58,13,1,17,0.06
2012-8-25,81.5,65.0,58.5,55.3,52.8,50.7,80,66,36,29.71,29.62,9,0,14,0.00
2012-8-26,79.1,75.7,65.4,59.2,50.0,44.7,79,42,31,29.80,29.70,10,1,24,0.03
2012-8-27,91.7,78.7,64.1,54.8,46.8,38.2,62,35,17,29.92,29.76,11,2,19,0.00
2012-8-28,92.6,78.2,61.0,47.9,43.6,38.5,55,31,16,29.92,29.72,9,1,13,0.00
2012-8-29,93.4,77.0,60.9,47.8,44.0,34.7,52,33,19,29.81,29.60,9,1,12,0.00
2012-9-7,81.1,74.0,67.3,52.0,50.6,49.6,58,45,35,29.76,29.63,14,9,24,0.05
2012-9-8,75.3,66.7,58.6,46.2,44.4,43.2,58,45,33,30.04,29.96,12,2,21,0.00
2012-9-9,78.5,64.4,52.4,53.8,47.4,43.5,75,56,34,30.09,29.93,9,1,16,0.00
2012-9-10,83.3,69.8,58.1,54.7,51.5,47.2,77,54,35,29.98,29.74,13,1,17,0.00
2012-9-11,83.8,69.1,59.8,57.1,50.9,48.1,86,54,32,29.80,29.68,12,1,21,0.05
2012-9-12,72.3,62.1,59.1,57.4,53.7,46.5,87,75,49,29.97,29.77,12,0,20,0.06
2012-9-13,67.3,59.3,53.7,50.4,44.6,40.7,84,59,44,30.23,29.98,11,1,20,0.03
2012-9-14,71.1,56.9,48.0,44.5,41.6,36.6,81,59,34,30.27,30.14,8,0,13,0.00
2012-9-15,79.0,63.0,46.1,40.7,37.0,32.8,70,41,23,30.18,29.93,5,0,9,0.00
2012-9-16,87.0,68.6,50.7,40.3,32.4,22.8,54,29,11,29.96,29.75,10,1,17,0.00
2012-9-17,84.7,68.6,55.7,38.0,31.1,23.2,39,26,14,29.85,29.65,13,1,22,0.00
2012-9-18,66.7,56.1,48.9,41.2,38.0,36.1,64,51,38,30.01,29.84,6,0,9,0.00
2012-9-19,86.5,75.5,58.0,39.5,31.7,23.9,43,21,13,29.97,29.81,9,1,13,0.00
2012-9-20,85.1,70.5,53.5,37.3,27.0,21.7,37,21,11,29.91,29.75,19,1,21,0.00
2012-9-21,87.9,70.2,52.0,34.4,29.1,23.4,39,23,13,29.91,29.77,6,0,12,0.00
2012-9-22,88.6,70.8,53.9,39.6,32.7,27.7,44,26,14,29.94,29.81,11,1,15,0.00
2012-9-23,88.5,75.2,64.4,39.4,34.0,30.0,29,23,16,29.95,29.78,10,1,16,0.00
2012-9-24,82.9,71.6,63.0,41.4,34.5,28.6,34,26,19,29.83,29.66,15,2,22,0.00
2012-9-25,79.4,66.8,54.2,50.5,43.2,39.5,66,44,26,29.80,29.68,17,1,19,0.02
2012-9-26,78.8,64.7,52.3,44.4,41.1,37.9,67,44,27,29.86,29.75,11,1,20,0.00
2012-9-27,81.7,67.9,52.7,45.3,41.1,37.7,62,40,23,29.91,29.76,9,0,12,0.00
2012-9-28,76.0,65.9,57.8,50.2,46.6,40.7,66,51,36,29.87,29.74,10,1,17,0.01
2012-9-29,79.0,65.5,53.0,49.2,45.0,39.3,76,51,25,29.95,29.80,9,0,12,0.00
2012-9-30,80.2,66.0,52.4,46.5,39.6,29.8,68,41,21,29.92,29.76,11,1,16,0.00
2012-10-1,79.9,66.8,52.0,41.2,37.4,32.9,59,36,20,29.97,29.81,13,1,14,0.00
2012-10-2,81.9,65.8,49.1,42.1,36.5,28.1,63,37,17,29.91,29.69,7,1,14,0.00
2012-10-3,84.2,68.0,52.3,35.2,29.6,26.0,40,25,14,29.81,29.69,22,1,27,0.00
2012-10-4,84.2,69.9,55.9,38.7,31.9,25.9,37,25,15,29.92,29.75,17,2,24,0.00
2012-10-5,80.9,69.0,54.8,38.7,32.1,27.6,43,26,17,29.85,29.67,12,1,21,0.00
2012-10-6,76.9,63.8,48.5,38.7,34.6,27.3,58,36,18,29.80,29.61,11,1,22,0.00
2012-10-7,70.0,53.4,40.9,35.9,30.6,22.9,66,45,19,29.97,29.79,9,0,11,0.00
2012-10-8,77.6,58.7,40.9,38.5,30.7,24.0,69,38,17,30.01,29.78,7,0,12,0.00
2012-10-9,79.4,67.5,59.2,36.0,30.5,29.1,34,25,19,29.85,29.76,6,0,12,0.00
2012-10-10,59.0,50.8,44.1,32.2,31.1,29.9,61,48,35,29.95,29.85,0,0,1,0.00
2012-10-12,76.0,67.1,52.9,46.9,35.4,25.3,46,32,22,29.82,29.64,26,6,35,0.00
2012-10-13,62.3,52.8,41.1,34.6,31.4,28.9,63,45,31,30.07,29.81,17,2,24,0.00
2012-10-14,73.2,56.0,41.6,37.7,34.1,28.4,70,47,25,30.22,30.04,5,0,11,0.00
2012-10-15,76.1,59.6,43.9,36.6,31.9,27.9,58,37,22,30.08,29.80,6,0,10,0.00
2012-10-16,79.2,62.0,46.7,34.6,29.9,22.8,52,32,16,29.84,29.57,10,1,13,0.00
2012-10-17,73.1,62.8,54.0,36.2,20.7,5.5,41,22,8,29.82,29.64,18,3,25,0.00
2012-10-18,72.6,58.7,43.9,22.0,13.3,4.2,25,17,13,29.95,29.82,14,2,21,0.00
2012-10-19,78.6,60.9,48.4,30.3,21.7,16.0,28,22,15,29.96,29.76,9,0,11,0.00
2012-10-20,80.4,60.9,43.1,28.7,24.3,20.1,42,26,14,29.82,29.62,6,0,9,0.00
2012-10-21,75.7,62.4,48.7,39.0,32.7,24.2,56,34,21,29.78,29.64,14,1,18,0.00
2012-10-22,73.8,61.5,49.0,37.4,33.4,28.7,56,36,25,29.82,29.67,9,1,14,0.00
2012-10-23,77.3,64.0,48.3,34.4,32.0,29.5,49,32,20,29.83,29.66,12,1,14,0.00
2012-10-26,55.2,44.0,34.6,24.4,20.8,16.1,60,41,25,30.25,30.03,12,1,16,0.00
2012-10-27,60.2,43.9,28.3,24.4,20.4,14.0,73,42,22,30.24,30.05,4,0,9,0.00
2012-10-28,67.3,52.1,39.5,24.9,18.0,12.5,38,26,18,30.15,29.98,6,0,9,0.00
2012-10-29,74.1,56.1,40.3,26.4,21.7,18.7,44,28,16,30.14,29.95,4,0,10,0.00
2012-10-30,74.9,55.9,42.5,27.5,20.8,16.1,38,26,16,30.06,29.91,6,0,10,0.00
2012-10-31,50.1,44.5,40.4,22.9,19.1,17.8,44,36,29,30.05,29.97,0,0,3,0.00
2012-11-4,53.6,47.7,46.7,17.6,16.0,15.6,29,28,24,30.13,30.12,0,0,1,0.00
2012-11-5,71.1,54.3,37.3,26.5,21.5,15.2,54,29,18,30.21,30.05,5,0,9,0.00
2012-11-6,73.8,56.0,40.8,31.2,26.0,20.6,54,33,20,30.16,30.02,5,0,9,0.00
2012-11-7,74.4,55.8,39.2,29.4,23.6,20.1,51,31,15,30.10,29.89,4,0,7,0.00
2012-11-8,67.7,54.5,42.2,28.7,24.9,20.4,44,32,22,29.92,29.78,10,0,15,0.00
2012-11-9,61.6,53.1,46.8,45.7,34.5,21.8,79,51,31,29.84,29.64,12,2,19,0.07
2012-11-10,52.4,47.6,31.9,40.5,35.2,19.8,67,62,52,29.84,29.54,15,3,28,0.01
2012-11-11,40.2,33.2,25.5,21.9,8.3,3.4,69,36,22,30.47,29.84,23,4,25,0.00
2012-11-12,49.8,33.6,21.8,9.0,5.1,3.0,49,31,15,30.61,30.40,5,0,12,0.00
2012-11-13,58.7,38.7,23.7,13.9,8.7,3.5,58,30,16,30.43,30.26,6,0,9,0.00
2012-11-14,60.8,41.8,25.8,19.3,13.2,9.5,65,33,16,30.38,30.18,6,0,11,0.00
2012-11-15,60.1,44.9,31.1,18.4,13.7,10.5,55,29,17,30.29,30.20,3,0,4,0.00
2012-11-16,63.6,47.6,38.3,24.8,19.3,13.1,52,33,19,30.30,30.10,6,0,12,0.00
2012-11-17,58.2,47.8,36.5,26.8,22.1,17.4,56,37,26,30.20,30.05,7,0,7,0.00
2012-11-18,62.3,49.7,42.5,42.3,35.2,24.8,89,60,36,30.10,29.98,7,0,11,0.04
2012-11-19,62.8,47.2,35.8,37.2,30.2,19.8,89,56,28,30.25,30.10,8,0,14,0.00
2012-11-20,64.2,47.0,30.9,26.9,19.5,9.2,62,35,20,30.30,30.14,5,0,7,0.00
2012-11-21,60.5,46.1,34.4,31.6,23.1,9.5,60,41,25,30.19,30.03,6,0,10,0.00
2012-11-22,64.5,48.3,34.4,30.9,25.9,18.1,69,45,25,30.26,30.06,5,0,9,0.00
2012-11-23,58.0,44.1,32.0,26.7,22.4,17.9,66,43,30,30.45,30.25,4,0,9,0.00
2012-11-24,62.2,44.0,30.0,25.7,21.7,18.0,70,43,24,30.36,30.07,5,0,7,0.00
2012-11-25,65.9,47.2,32.3,22.8,18.6,15.0,66,34,18,30.07,29.86,4,0,9,0.00
2012-11-26,62.5,45.8,33.5,24.9,18.4,15.2,53,34,20,30.26,29.94,4,0,7,0.00
2012-11-27,59.9,41.7,27.1,24.4,19.9,15.6,75,44,25,30.39,30.25,5,0,9,0.00
2012-11-28,63.1,45.5,31.0,25.9,20.4,16.3,64,39,22,30.35,30.14,8,0,11,0.00
2012-11-29,63.1,47.4,33.5,28.6,24.9,21.8,65,43,25,30.18,30.06,5,0,10,0.00
2012-11-30,64.0,47.5,34.1,31.3,26.2,22.5,68,45,26,30.15,30.01,8,0,12,0.00
2012-12-1,66.4,51.2,40.4,28.6,24.9,21.9,56,37,24,30.09,29.97,5,0,11,0.00
2012-12-2,64.3,48.2,35.2,27.5,21.0,15.7,65,37,17,30.09,29.92,5,0,12,0.00
2012-12-3,61.8,49.8,39.5,33.8,25.5,15.4,55,39,30,30.12,29.93,12,1,15,0.00
2012-12-4,56.8,44.7,33.6,30.9,25.1,18.8,73,48,26,30.35,30.12,5,0,9,0.00
2012-12-5,64.2,48.0,34.6,26.0,22.3,19.4,58,38,21,30.29,29.96,6,0,7,0.00
2012-12-6,62.7,51.1,37.5,28.9,23.4,19.7,61,35,24,29.96,29.75,4,0,7,0.00
2012-12-7,60.0,48.0,37.0,30.3,25.5,21.6,57,42,31,29.85,29.74,10,0,15,0.00
2012-12-8,59.0,44.6,32.4,28.5,22.9,13.7,73,44,27,29.89,29.75,9,0,10,0.00
2012-12-9,40.0,36.0,19.8,21.9,14.7,-5.0,50,42,32,30.23,29.81,7,1,11,0.00
2012-12-10,38.1,27.2,14.6,11.4,1.3,-7.0,43,32,24,30.34,30.16,15,2,20,0.00
2012-12-11,42.9,32.1,22.7,13.2,10.7,8.3,63,42,27,30.24,30.13,13,1,17,0.00
2012-12-12,49.9,34.4,22.2,14.2,10.7,7.8,68,39,22,30.26,30.11,12,0,16,0.00
2012-12-13,55.8,40.3,26.2,22.3,15.4,9.5,59,37,24,30.18,29.92,10,0,17,0.00
2012-12-14,46.6,39.8,33.9,37.6,26.9,19.1,88,62,42,30.00,29.62,16,2,28,0.15
2012-12-15,43.6,36.2,28.7,29.3,24.7,21.0,88,64,49,30.01,29.85,17,1,26,0.00
2012-12-16,39.5,32.1,27.9,29.0,22.0,17.7,90,67,50,30.16,29.92,15,1,19,0.02
2012-12-17,45.8,31.9,23.1,26.0,20.7,15.7,81,64,42,30.20,30.04,4,0,9,0.00
2012-12-18,47.9,36.7,26.2,28.2,24.9,20.9,85,64,41,30.05,29.70,3,0,7,0.00
2012-12-19,41.8,34.0,20.5,31.7,18.3,4.1,80,53,36,30.37,29.52,25,6,34,0.01
2012-12-20,37.7,24.7,15.6,10.6,4.3,2.6,65,43,23,30.70,30.37,12,1,17,0.00
2012-12-21,47.4,28.4,14.9,11.1,6.3,2.1,69,41,22,30.60,30.37,4,0,5,0.00
2012-12-22,50.2,32.9,20.5,12.6,8.2,4.0,64,37,19,30.41,30.19,2,0,4,0.00
2012-12-23,53.2,37.8,25.1,20.1,14.8,9.5,70,41,24,30.24,30.04,5,0,10,0.00
2012-12-24,51.7,39.1,29.1,28.4,19.4,14.2,69,46,27,30.03,29.67,14,1,19,0.00
2012-12-25,38.9,31.5,26.2,23.5,14.3,11.0,66,49,37,30.16,29.72,19,3,25,0.00
2012-12-26,40.7,31.5,21.4,17.6,15.2,11.0,78,52,37,30.15,29.84,14,1,18,0.00
2012-12-27,38.5,32.4,24.6,19.7,16.0,12.4,67,51,36,29.94,29.79,12,1,17,0.00
2012-12-28,34.4,29.0,21.6,16.6,12.1,8.3,59,49,41,30.37,30.13,19,4,21,0.00
2012-12-29,39.2,25.6,11.7,13.7,8.2,5.0,77,50,30,30.50,30.27,4,0,12,0.00
2012-12-30,43.0,34.0,27.0,25.6,14.2,7.9,67,44,34,30.27,29.87,3,0,9,0.00
2012-12-31,40.2,33.2,26.8,28.4,21.7,13.4,90,65,36,30.12,29.83,13,2,23,0.07
2013-1-1,33.6,26.1,20.0,18.2,13.4,10.2,72,59,42,30.39,30.12,15,1,18,0.00